Flight Track Log - Related Links

Times and Time Zones

All times are in EDT time to prevent confusion due to time zone crossing. See the EJA831 flight status page for this flight to view local times or setup timezone preferences in your user account.

Time Position Orientation Groundspeed Altitude Reporting Facility
EDT Latitude Longitude Course Direction KTS MPH feet Rate Location/Type
Thu 05:41:16 PM 42.0114 -70.3025 206° Southwest 268 308 6,900  Level Boston Center
Thu 05:42:16 PM 41.9347 -70.3331 197° South 278 320 9,900 2,550 Climbing Boston Center
Thu 05:43:16 PM 41.8611 -70.4025 215° Southwest 297 342 12,000 2,500 Climbing Boston Center
Thu 05:44:16 PM 41.7853 -70.4744 215° Southwest 318 366 14,900 2,000 Climbing Boston Center
Thu 05:45:00 PM 41.7194 -70.6974 217° Southwest  Level FlightAware Approximate
Thu 05:45:16 PM 41.7050 -70.5464 214° Southwest 337 388 16,000  Level Boston Center
Thu 05:46:00 PM 41.6595 -70.7715 206° Southwest  Level FlightAware Approximate
Thu 05:46:16 PM 41.6458 -70.6122 220° Southwest 349 402 16,000  Level Boston Center
Thu 05:47:16 PM 41.6522 -70.7675 273° West 311 358 16,000 -50 Level Boston Center
Thu 05:48:16 PM 41.6667 -70.8867 279° West 320 368 15,900  Descending Boston Center
Thu 05:49:16 PM 41.6806 -71.0114 279° West 338 389 16,000 50 Climbing Boston Center
Thu 05:50:16 PM 41.6947 -71.1417 278° West 356 410 16,000 -50 Level Boston Center
Thu 05:51:16 PM 41.7067 -71.2667 277° West 351 404 15,900  Descending Boston Center
Thu 05:52:16 PM 41.7203 -71.3944 278° West 351 404 16,000 50 Climbing Boston Center
Thu 05:53:16 PM 41.7714 -71.5075 301° West 345 397 16,000  Level Boston Center
Thu 05:54:16 PM 41.8242 -71.6044 306° West 350 403 16,000  Level Boston Center
Thu 05:55:16 PM 41.8667 -71.7319 294° West 349 402 16,000  Level Boston Center
Thu 05:56:16 PM 41.8986 -71.8375 292° West 343 395 16,000  Level Boston Center
Thu 05:57:16 PM 41.9367 -71.9711 291° West 350 403 16,000  Level Boston Center
Thu 05:58:16 PM 41.9706 -72.0769 293° West 350 403 16,000  Level Boston Center
Thu 05:59:16 PM 42.0106 -72.2111 292° West 350 403 16,000  Level Boston Center
Thu 06:00:16 PM 42.0419 -72.3142 292° West 345 397 16,000  Level Boston Center
Thu 06:01:16 PM 42.0817 -72.4456 292° West 345 397 16,000  Level Boston Center
Thu 06:02:16 PM 42.1169 -72.5633 292° West 350 403 16,000  Level Boston Center
Thu 06:03:16 PM 42.1542 -72.6836 293° West 350 403 16,000  Level Boston Center
Thu 06:04:16 PM 42.1581 -72.8097 272° West 340 391 16,000  Level Boston Center
Thu 06:05:16 PM 42.1492 -72.9386 265° West 345 397 16,000  Level Boston Center
Thu 06:06:16 PM 42.1381 -73.0644 263° West 350 403 16,000 -500 Level Boston Center
Thu 06:07:16 PM 42.1311 -73.1931 266° West 350 403 15,000 -900 Descending Boston Center
Thu 06:08:16 PM 42.1219 -73.3078 264° West 350 403 14,200 -500 Descending Boston Center
Thu 06:09:16 PM 42.1125 -73.4475 265° West 350 403 14,000 -100 Descending Boston Center
Thu 06:10:16 PM 42.0822 -73.5589 250° West 337 388 14,000  Level Boston Center
Thu 06:11:16 PM 42.0478 -73.6647 246° West 317 365 14,000  Level Boston Center
Thu 06:12:16 PM 42.0197 -73.7478 246° West 311 358 14,000 -200 Level Boston Center
Thu 06:13:16 PM 41.9853 -73.8478 245° Southwest 318 366 13,600 -850 Descending Boston Center
Thu 06:14:16 PM 41.9417 -73.9864 247° West 313 360 12,300 -1,200 Descending Boston Center
Thu 06:15:16 PM 41.9214 -74.0975 256° West 305 351 11,200 -1,100 Descending Boston Center
Thu 06:16:16 PM 41.8908 -74.1886 246° West 286 329 10,100 -1,100 Descending Boston Center
Thu 06:17:16 PM 41.8378 -74.2569 224° Southwest 290 334 9,000 -1,000 Descending Boston Center
Thu 06:18:16 PM 41.7781 -74.3386 226° Southwest 290 334 8,100 -450 Descending Boston Center
Thu 06:19:16 PM 41.7311 -74.4042 226° Southwest 290 334 8,100  Level Boston Center
Thu 06:20:16 PM 41.6689 -74.4911 226° Southwest 290 334 8,100  Level Boston Center
Thu 06:21:16 PM 41.6158 -74.5506 220° Southwest 290 334 8,100 -100 Level Boston Center
Thu 06:22:16 PM 41.5281 -74.5697 189° South 283 326 7,900 -600 Descending Boston Center
Thu 06:23:16 PM 41.4547 -74.5839 188° South 297 342 6,900 -885 Descending Boston Center
Thu 06:24:18 PM 41.3667 -74.6167 196° South 274 315 6,100 -738 Descending New York TRACON
Thu 06:25:18 PM 41.3000 -74.5833 159° South 293 337 5,400 -1,000 Descending New York TRACON
Thu 06:26:18 PM 41.2667 -74.5000 118° Southeast 287 330 4,100 -650 Descending New York TRACON
Thu 06:27:18 PM 41.2167 -74.4167 129° Southeast 253 291 4,100 -50 Level New York TRACON
Thu 06:28:18 PM 41.1833 -74.3333 118° Southeast 249 287 4,000 -522 Descending New York TRACON
Thu 06:29:13 PM 41.1500 -74.2667 124° Southeast 240 276 3,100 -474 Descending New York TRACON
Thu 06:30:12 PM 41.1000 -74.2000 135° Southeast 232 267 3,100  Level New York TRACON
Thu 06:31:12 PM 41.0667 -74.1333 124° Southeast 208 239 3,100 -429 Level New York TRACON
Thu 06:32:18 PM 41.0333 -74.0667 124° Southeast 212 244 2,200 -476 Descending New York TRACON
Thu 06:33:18 PM 40.9833 -74.0500 166° South 183 211 2,100 -250 Descending New York TRACON
Thu 06:34:18 PM 40.9500 -74.0500 180° South 165 190 1,700 -550 Descending New York TRACON
Thu 06:35:18 PM 40.9000 -74.0500 180° South 139 160 1,000 -700 Descending New York TRACON
Thu 06:37:00 PM 40.8500 -74.0500 164° South  Level FlightAware Approximate
Thu 06:44:00 PM 40.8501 -74.0608 164° South  Level Estimated
Thu 06:45:00 PM 40.8501 -74.0608 164° South  Level Estimated

Login

Don't have an account? Register now (free) for customized features, flight alerts, and more!